Regional Weather Roundup
Issued by NWS

Home | Current Version | Previous Version | Text Only | Print | Product List | Glossary Off
Versions: 1 2 3 4 5 6 7 8 9 10 11 12 13 14 15 16 17 18 19 20 21 22 23 24 25 26 27 28 29 30 31 32 33 34 35 36 37 38 39 40 41 42 43 44 45 46 47 48 49 50

000
ASUS45 KCYS 190210
RWRWY

WYOMING REGIONAL WEATHER ROUNDUP
NATIONAL WEATHER SERVICE CHEYENNE WY
800 PM MDT SAT APR 18 2015

NOTE:  "FAIR" INDICATES FEW OR NO CLOUDS BELOW 12,000 FEET
WITH NO SIGNIFICANT WEATHER AND/OR OBSTRUCTIONS TO VISIBILITY.

WYZ001-190300-
YELLOWSTONE NATIONAL PARK

CITY           SKY/WX    TMP DP  RH WIND       PRES   REMARKS
LK YELLOWSTONE   N/A     38  21  50 VRB7      30.17R WCI  33
W YELLOWSTONE  NOT AVBL

$$
WYZ002>013-054>058-071-098>099-190300-
NORTHERN WYOMING

CITY           SKY/WX    TMP DP  RH WIND       PRES   REMARKS
JACKSON        FAIR      54  18  24 N9        30.03R
CODY           CLOUDY    39  30  70 N15       30.18R WCI  31
GREYBULL       FAIR      49  29  46 NW26G36   30.07R
WORLAND        CLOUDY    50  28  42 NW31G37   30.07R
SHERIDAN       CLOUDY    44  33  65 NW21G30   30.16R
BUFFALO        LGT RAIN  43  35  73 NW24G39   30.11R
GILLETTE       CLOUDY    47  35  63 N22G30    30.03R
HULETT         LGT RAIN  45  43  93 N10       30.03R
NEWCASTLE      LGT RAIN  43  43 100 NW5       30.00R

$$
WYZ014>020-022>026-101>103-190300-
CENTRAL WYOMING

CITY           SKY/WX    TMP DP  RH WIND       PRES   REMARKS
BIG PINEY      CLOUDY    51  16  24 N12       30.03R
PINEDALE       FAIR      45  28  53 E7        30.04R
DUBOIS         MOCLDY    45  25  45 S9        30.04R
LANDER         CLOUDY    48  33  56 N13G25    30.07R
RIVERTON       FAIR      46  32  58 N29G44    30.05R
CASPER         CLOUDY    39  36  89 NE6       30.05R WCI  35
DOUGLAS        HVY RAIN  40  38  93 NW14      30.03R FOG     WCI  32

$$
WYZ021-027>030-104>119-190300-
SOUTHERN WYOMING

CITY           SKY/WX    TMP DP  RH WIND       PRES   REMARKS
EVANSTON       FAIR      50  21  32 N16       30.04S
KEMMERER       FAIR      50  19  29 NW13G20   30.04R
FORT BRIDGER   CLOUDY    54  23  30 NW14G20   30.05R
ROCK SPRINGS   CLOUDY    44  33  65 SE14      30.05R
DIXON          CLOUDY    37  34  88 CALM      30.07R
RAWLINS        CLOUDY    35  34  96 W5        30.06R WCI  31
SARATOGA       LGT SNOW  32  32 100 MISG      30.03R
LARAMIE        CLOUDY    32  30  92 NW12      29.99R WCI  23
CHEYENNE       FAIR      38  31  76 NW18G26   29.94R WCI  28
TORRINGTON     FAIR      46  40  79 N14G20    29.93R
PINE BLUFFS    LGT RAIN  41  37  87 NE10G16   29.95R

$$


USA.gov is the U.S. government's official web portal to all federal, state and local government web resources and services.